User: anonymous   Login
Location: Unspecified
(34.1750°S, 150.8048°E)
Time: 09:54:07
(UTC+11:00)
Language:

UWE-3 - Orbit

View from above orbital plane
View from above orbital plane
View from above satellite
View from above satellite

Ground track
Ground track

The orbit data is extracted from the following two-line orbital elements,

1 39446U 13066AG  24052.09956656  .00004812  00000-0  55787-3 0  9991
2 39446  97.7678   4.5802 0060602 243.2810 116.2194 14.84586358551327
Epoch (UTC): 21 February 2024 02:23:22
Eccentricity: 0.0060602
inclination: 97.7678°
perigee height: 572 km
apogee height: 657 km
right ascension of ascending node: 4.5802°
argument of perigee: 243.2810°
revolutions per day: 14.84586358
mean anomaly at epoch: 116.2194°
orbit number at epoch: 55132

The dashed part of the orbit path shows where the satellite is in the earth's shadow,  

DLR